Dewpoint
-1 1 4 6 6 7 10 10 7 10 13 13 13 13 13 13 13 12 12 12 11 10 8 8 10 10 10 10 10 11 11 11
2 6 7 8 9 10 11 11 12 12 9 12 14 14 12 14 14 13 13 12 13 11 10 8 9 9 6 7 5 6 9 11
3 5 5 6 7 11 11 12 13 13 13 9 9 13 14 13 13 13 13 13 12 12 11 11 9 7 4 2 4 2 2 4
2 1 2 3 4 7 11 12 12 13 14 14 10 6 13 14 14 13 13 13 13 12 12 13 12 7 6 4 5 2 4 3
-1 -2 -1 -0 1 3 8 11 12 12 13 15 14 11 9 13 14 13 13 13 13 13 13 13 13 10 9 5 6 7 7 8
-4 -5 -4 -4 -2 1 4 9 11 11 11 13 15 15 12 12 13 13 13 13 13 13 13 13 13 13 12 9 10 7 9 12
-5 -6 -6 -6 -5 -3 2 7 10 10 12 13 14 15 13 12 15 14 13 14 14 14 14 14 14 14 13 13 13 12 12 13
-5 -6 -6 -6 -6 -4 -1 5 10 9 10 12 13 14 14 14 14 14 14 14 14 14 14 14 14 14 14 14 14 13 13 13
-5 -5 -6 -6 -6 -6 -2 3 9 8 11 11 12 13 13 15 15 14 14 15 14 15 14 14 14 14 14 14 14 13 12 11
-6 -6 -6 -6 -7 -6 -2 2 8 8 10 10 11 12 11 12 13 13 14 13 13 13 13 13 13 13 14 13 12 10 9 8
-8 -6 -7 -8 -7 -6 -4 1 7 8 9 9 9 10 9 9 10 10 10 10 10 11 11 11 12 12 12 11 9 8 6 8
-10 -7 -8 -9 -7 -5 -4 1 4 7 8 8 9 9 9 8 7 7 7 8 9 9 9 8 10 10 9 9 9 10 5 4
-10 -7 -9 -8 -7 -5 -3 2 4 7 7 7 6 8 8 7 8 8 3 6 7 7 7 3 4 2 3 3 0 -4 -6 -8
-8 -8 -9 -7 -6 -5 -2 2 6 7 6 6 6 5 7 7 6 4 3 1 0 -1 -2 -3 -5 -0 -1 -3 -4 -4 -4 -6
-8 -9 -8 -6 -5 -4 -1 4 5 6 5 5 4 3 4 3 1 0 -1 -1 -1 -1 -2 -3 -3 -5 -2 -1 -1 -3 -8 -8
-8 -8 -7 -5 -4 -3 -0 3 4 4 4 3 2 2 1 1 1 1 0 -0 -1 -2 -2 -1 -2 -2 -3 -4 -5 -7 -6 -8
-9 -8 -7 -5 -3 -1 1 2 2 2 2 1 0 0 0 0 -0 0 0 -0 -2 -2 -2 -1 -2 -2 -3 -6 -7 -7 -8 -8
-7 -6 -6 -4 -2 -1 1 1 1 2 1 0 0 -0 -0 -1 -1 -1 -2 -2 -2 -3 -2 -2 -3 -4 -7 -8 -10 -8 -6 -5
-8 -7 -5 -3 -1 -0 0 1 0 0 -0 -0 -1 -1 -1 -2 -2 -3 -3 -4 -4 -5 -8 -19 -28 -31 -27 -16 -10 -9 -9 -9
Wind_Speed
17 17 18 18 17 16 14 14 13 15 25 31 35 37 42 42 44 47 45 47 48 48 45 42 41 36 32 31 27 22 22 23
16 17 19 19 18 18 18 17 16 15 18 25 31 37 37 40 44 43 42 44 45 47 48 46 43 45 41 38 33 27 27 25
16 19 21 22 23 24 21 20 20 20 18 20 27 36 33 37 39 41 43 42 44 46 47 45 48 47 46 37 44 38 42 38
17 20 22 23 25 26 26 25 25 23 21 24 26 33 37 37 35 37 38 41 43 46 47 44 47 47 49 47 48 47 46 43
17 21 24 25 26 27 26 27 28 27 24 22 26 29 32 35 33 31 32 38 41 43 46 43 43 46 49 48 49 48 45 41
18 20 22 24 27 28 29 27 29 31 28 24 24 30 32 34 33 28 30 33 39 40 44 41 44 44 46 47 42 45 47 33
17 20 23 25 27 30 33 30 31 34 32 25 21 23 31 26 28 28 27 30 32 36 34 34 33 38 34 31 32 34 32 34
21 25 28 29 31 31 34 33 34 39 35 32 27 23 20 20 25 26 26 28 29 29 30 35 36 32 35 34 29 28 29 33
23 26 28 30 31 32 32 31 33 37 38 37 29 22 19 19 23 26 25 25 29 34 32 34 36 38 34 33 31 22 13 5
26 28 27 30 31 32 33 31 30 35 34 37 27 20 15 11 10 15 18 18 21 25 25 29 30 27 27 21 17 13 12 24
29 30 30 30 29 29 30 28 28 33 30 31 22 18 12 8 4 1 8 11 12 15 16 18 19 20 19 19 15 11 14 17
32 28 31 30 29 29 29 28 27 31 26 18 13 17 17 12 11 10 10 11 11 14 18 10 17 15 13 15 16 14 13 13
32 25 28 29 29 29 29 28 26 28 28 16 4 6 7 11 7 5 7 11 10 10 12 12 18 15 14 14 15 17 14 14
25 23 25 28 28 30 30 30 27 22 25 16 7 4 2 4 2 5 5 13 13 16 16 17 19 20 17 18 16 14 11 10
18 19 21 26 28 30 31 30 25 21 25 15 6 3 3 6 7 7 11 13 13 15 17 17 20 18 17 18 14 11 8 7
17 20 23 26 28 29 29 28 26 22 17 10 4 5 7 9 9 10 12 12 14 15 14 15 15 13 13 11 11 9 7 7
17 20 23 25 27 29 28 27 28 20 9 4 5 8 8 11 12 13 12 12 14 14 16 16 14 13 10 8 9 10 9 10
20 21 23 25 26 26 24 23 19 12 1 4 5 6 11 14 15 15 16 16 14 16 18 16 15 12 10 6 5 9 10 8
19 20 21 22 23 21 19 20 13 8 3 4 7 9 12 13 13 14 15 16 15 15 16 19 18 18 14 13 15 10 10 13
Wind_Direction
340 339 343 346 344 344 339 328 286 258 259 259 261 251 247 240 240 239 235 236 237 237 235 231 223 219 220 223 223 228 240 247
341 346 348 354 353 348 343 336 327 317 275 262 257 256 254 246 242 238 237 232 232 235 239 229 226 226 230 229 233 236 239 241
341 347 351 355 352 349 345 337 330 320 306 282 265 262 259 254 246 244 237 232 228 234 236 228 226 231 234 236 232 229 238 247
350 348 352 353 354 350 345 339 334 328 319 306 287 257 261 253 249 246 241 234 230 225 232 225 225 234 235 236 231 233 230 242
353 354 355 356 352 351 345 338 338 331 324 310 303 283 262 258 253 251 248 240 236 228 225 230 226 234 236 238 239 234 230 235
354 355 352 352 352 349 347 341 338 337 330 327 312 298 280 265 255 255 246 240 238 230 233 239 241 235 236 238 239 237 238 227
350 350 349 348 347 346 347 344 340 338 334 331 319 308 308 262 255 250 250 242 231 232 246 248 238 234 232 233 231 233 238 235
347 347 346 345 345 343 345 345 340 339 339 340 330 318 297 280 258 256 258 244 239 239 246 235 235 227 219 214 211 221 237 244
340 341 341 341 340 340 339 342 337 339 344 338 332 330 310 275 255 249 257 234 237 230 230 229 227 220 209 211 212 219 235 303
337 337 336 335 336 336 337 340 334 340 337 336 332 333 330 330 272 245 240 205 203 198 200 207 204 192 199 204 209 225 257 296
334 330 332 332 332 332 333 334 334 336 339 342 347 351 356 14 18 146 174 169 161 157 159 176 173 192 194 196 194 210 223 198
326 325 327 329 332 334 335 334 333 324 336 342 19 26 6 27 65 83 90 122 121 126 135 140 148 160 177 192 180 178 181 178
319 324 325 328 333 336 337 334 332 319 330 320 351 36 8 325 316 27 69 100 113 125 123 116 105 97 123 128 133 138 146 143
311 320 330 331 336 340 341 336 329 309 324 311 310 26 3 348 351 54 56 80 101 107 112 109 107 80 84 97 101 107 113 121
311 326 332 334 339 344 345 344 349 331 330 315 326 11 81 86 98 105 83 82 73 87 95 101 105 104 98 93 91 88 87 79
325 330 336 334 340 345 347 345 347 336 328 326 23 61 85 101 119 117 118 106 90 85 94 93 87 89 83 77 70 62 56 51
328 339 342 338 342 344 344 344 343 341 344 51 107 131 127 101 98 96 87 76 72 68 73 80 89 91 91 83 78 49 39 39
337 335 335 340 343 343 344 341 335 330 330 137 133 114 110 106 103 96 91 81 71 63 57 55 52 57 60 57 57 51 42 49
338 329 336 339 339 342 347 346 334 332 342 100 117 120 109 98 85 77 75 78 73 70 67 59 56 59 61 65 62 46 40 38
Height
1481 1482 1479 1475 1471 1468 1467 1464 1461 1461 1461 1459 1456 1456 1455 1455 1454 1454 1456 1456 1458 1461 1466 1469 1473 1476 1479 1481 1484 1488 1490 1492
1483 1482 1478 1474 1470 1467 1463 1461 1459 1458 1456 1455 1451 1447 1447 1447 1446 1447 1448 1450 1451 1452 1454 1460 1462 1464 1468 1470 1472 1475 1481 1484
1484 1482 1479 1474 1470 1465 1462 1460 1456 1452 1451 1448 1447 1442 1438 1436 1437 1437 1439 1441 1442 1443 1444 1447 1451 1455 1455 1457 1460 1458 1464 1469
1483 1482 1478 1474 1469 1464 1460 1456 1451 1447 1445 1441 1437 1433 1432 1431 1428 1428 1430 1432 1433 1435 1435 1438 1441 1445 1446 1449 1450 1452 1451 1456
1484 1481 1477 1473 1469 1464 1460 1454 1448 1442 1438 1435 1432 1427 1423 1423 1422 1423 1423 1423 1423 1424 1428 1429 1433 1435 1436 1438 1442 1444 1447 1447
1484 1481 1477 1473 1468 1463 1457 1452 1446 1438 1432 1427 1425 1420 1416 1415 1416 1416 1415 1415 1413 1414 1417 1422 1423 1425 1425 1429 1433 1436 1440 1446
1484 1481 1477 1472 1468 1462 1454 1449 1443 1435 1429 1422 1418 1413 1407 1406 1407 1409 1408 1407 1406 1406 1410 1412 1414 1416 1418 1423 1426 1428 1434 1436
1482 1479 1474 1470 1466 1461 1454 1447 1441 1432 1426 1420 1414 1408 1404 1401 1402 1402 1401 1400 1401 1402 1404 1404 1405 1407 1409 1410 1414 1416 1425 1431
1481 1478 1474 1470 1465 1460 1454 1448 1440 1430 1423 1417 1411 1404 1400 1396 1394 1393 1394 1391 1393 1393 1395 1396 1397 1398 1400 1402 1408 1411 1417 1424
1481 1477 1475 1471 1465 1460 1453 1446 1441 1430 1424 1417 1410 1406 1402 1395 1390 1389 1387 1385 1385 1383 1385 1391 1390 1393 1395 1396 1404 1407 1411 1416
1480 1478 1474 1470 1466 1460 1453 1448 1440 1432 1425 1419 1411 1407 1405 1400 1394 1392 1389 1388 1388 1381 1385 1393 1388 1391 1392 1394 1400 1403 1408 1413
1476 1476 1474 1470 1466 1460 1452 1447 1442 1432 1427 1422 1415 1409 1409 1403 1400 1399 1398 1393 1388 1387 1384 1393 1386 1391 1394 1394 1392 1397 1412 1412
1475 1475 1473 1470 1465 1459 1452 1446 1442 1432 1428 1423 1416 1411 1410 1404 1406 1404 1401 1389 1391 1392 1388 1390 1384 1388 1395 1397 1399 1403 1413 1413
1475 1475 1473 1471 1465 1459 1453 1446 1438 1431 1427 1423 1418 1413 1410 1405 1405 1405 1405 1400 1395 1395 1394 1392 1393 1403 1404 1401 1401 1407 1412 1412
1474 1473 1471 1471 1466 1459 1453 1445 1437 1432 1427 1422 1419 1417 1412 1412 1409 1408 1408 1409 1409 1404 1403 1401 1401 1400 1406 1404 1406 1408 1410 1414
1474 1472 1470 1469 1465 1459 1453 1445 1440 1433 1428 1424 1421 1419 1417 1415 1413 1412 1409 1411 1413 1412 1410 1410 1407 1409 1410 1412 1412 1415 1418 1419
1473 1470 1469 1469 1464 1460 1454 1447 1440 1434 1429 1426 1423 1421 1419 1419 1420 1418 1417 1417 1420 1421 1416 1412 1414 1414 1415 1416 1416 1417 1422 1421
1471 1470 1469 1467 1464 1461 1455 1449 1443 1437 1432 1428 1425 1424 1423 1422 1422 1422 1419 1419 1423 1421 1419 1418 1420 1421 1421 1420 1418 1421 1424 1423
1468 1469 1467 1467 1465 1462 1455 1449 1444 1440 1435 1432 1431 1428 1427 1427 1427 1427 1426 1425 1427 1427 1425 1425 1426 1425 1423 1421 1425 1428 1426 1421